SCP
0 0 0 0 0 0 0 0 0 0 0 0 0 0 0 0 0 0 0 0 0 0 0 0 0 0 0 0 0 0 0 0 0 0 0 0 0 0 0 0 0 0 0 0 0
0 0 0 0 0 0 0 0 0 0 0 0 0 0 0 0 0 0 0 0 0 0 0 0 0 0 0 0 0 0 0 0 0 0 0 0 0 0 0 0 0 0 0 0 0
0 0 0 0 0 0 0 0 0 0 0 0 0 0 0 0 0 0 0 0 0 0 0 0 0 0 0 0 0 0 0 0 0 0 0 0 0 0 0 0 0 0 0 0 0
0 0 0 0 0 0 0 0 0 0 0 0 0 0 0 0 0 0 0 0 0 0 0 0 0 0 0 0 0 0 0 0 0 0 0 0 0 0 0 0 0 0 0 0 0
0 0 0 0 0 0 0 0 0 0 0 0 0 0 0 0 0 0 0 0 0 0 0 0 0 0 0 0 0 0 0 0 0 0 0 0 0 0 0 0 0 0 0 0 0
0 0 0 0 0 0 0 0 0 0 0 0 0 0 0 0 0 0 0 0 0 0 0 0 0 0 0 0 0 0 0 0 0 0 0 0 0 0 0 0 0 0 0 0 0
0 0 0 0 0 0 0 0 0 0 0 0 0 0 0 0 0 0 0 0 0 0 0 0 0 0 0 0 0 0 0 0 0 0 0 0 0 0 0 0 0 0 0 0 0
0 0 0 0 0 0 0 0 0 0 0 0 0 0 0 0 0 0 0 0 0 0 0 0 0 0 0 0 0 0 0 0 0 0 0 0 0 0 0 0 0 0 0 0 0
0 0 0 0 0 0 0 0 0 0 0 0 0 0 0 0 0 0 0 0 0 0 0 0 0 0 0 0 0 0 0 0 0 0 0 0 0 0 0 0 0 0 0 0 0
0 0 0 0 0 0 0 0 0 0 0 0 0 0 0 0 0 0 0 0 0 0 0 0 0 0 0 0 0 0 0 0 0 0 0 0 0 0 0 0 0 0 0 0 0
0 0 0 0 0 0 0 0 0 0 0 0 0 0 0 0 0 0 0 0 0 0 0 0 0 0 0 0 0 0 0 0 0 0 0 0 0 0 0 0 0 0 0 0 0
0 0 0 0 0 0 0 0 0 0 0 0 0 0 0 0 0 0 0 0 0 0 0 0 0 0 0 0 0 0 0 0 0 0 0 0 0 0 0 0 0 0 0 0 0
0 0 0 0 0 0 0 0 0 0 0 0 0 0 0 0 0 0 0 0 0 0 0 0 0 0 0 0 0 0 0 0 0 0 0 0 0 0 0 0 0 0 0 0 0
0 0 0 0 0 0 0 0 0 0 0 0 0 0 0 0 0 0 0 0 0 0 0 0 0 0 0 0 0 0 0 0 0 0 0 0 0 0 0 0 0 0 0 0 0
0 0 0 0 0 0 0 0 0 0 0 0 0 0 0 0 0 0 0 0 0 0 0 0 0 0 0 0 0 0 0 0 0 0 0 0 0 0 0 0 0 0 0 0 0
0 0 0 0 0 0 0 0 0 0 0 0 0 0 0 0 0 0 0 0 0 0 0 0 0 0 0 0 0 0 0 0 0 0 0 0 0 0 0 0 0 0 0 0 0
0 0 0 0 0 0 0 0 0 0 0 0 0 0 0 0 0 0 0 0 0 0 0 0 0 0 0 0 0 0 0 0 0 0 0 0 0 0 0 0 0 0 0 0 0
0 0 0 0 0 0 0 0 0 0 0 0 0 0 0 0 0 0 0 0 0 0 0 0 0 0 0 0 0 0 0 0 0 0 0 0 0 0 0 0 0 0 0 0 0
0 0 0 0 0 0 0 0 0 0 0 0 0 0 0 0 0 0 0 0 0 0 0 0 0 0 0 0 0 0 0 0 0 0 0 0 0 0 0 0 0 0 0 0 0
0 0 0 0 0 0 0 0 0 0 0 0 0 0 0 0 0 0 0 0 0 0 0 0 0 0 0 0 0 0 0 0 0 0 0 0 0 0 0 0 0 0 0 0 0
0 0 0 0 0 0 0 0 0 0 0 0 0 0 0 0 0 0 0 0 0 0 0 0 0 0 0 0 0 0 0 0 0 0 0 0 0 0 0 0 0 0 0 0 0
0 0 0 0 0 0 0 0 0 0 0 0 0 0 0 0 0 0 0 0 0 0 0 0 0 0 0 0 0 0 0 0 0 0 0 0 0 0 0 0 0 0 0 0 0
0 0 0 0 0 0 0 0 0 0 0 0 0 0 0 0 0 0 0 0 0 0 0 0 0 0 0 0 0 0 0 0 0 0 0 0 0 0 0 0 0 0 0 0 0
0 0 0 0 0 0 0 0 0 0 0 0 0 0 0 0 0 0 0 0 0 0 0 0 0 0 0 0 0 0 0 0 0 0 0 0 0 0 0 0 0 0 0 0 0
0 0 0 0 0 0 0 0 0 0 0 0 0 0 0 0 0 0 0 0 0 0 0 0 0 0 0 0 0 0 0 0 0 0 0 0 0 0 0 0 0 0 0 0 0
0 0 0 0 0 0 0 0 0 0 0 0 0 0 0 0 0 0 0 0 0 0 0 0 0 0 0 0 0 0 0 0 0 0 0 0 0 0 0 0 0 0 0 0 0
0 0 0 0 0 0 0 0 0 0 0 0 0 0 0 0 0 0 0 0 0 0 0 0 0 0 0 0 0 0 0 0 0 0 0 0 0 0 0 0 0 0 0 0 0
Wind_Speed_500mb
12 11 11 11 11 12 13 14 15 15 16 17 19 21 22 24 25 27 28 13 11 12 11 10 9 4 1 3 5 5 9 2 6 10 4 6 11 2 14 5 5 5 12 21 23
17 17 16 16 16 16 16 16 17 18 19 20 22 24 26 28 30 30 11 7 5 4 5 8 7 4 4 3 3 8 7 13 8 7 3 9 4 14 8 13 7 18 14 10 15
22 21 21 20 19 19 20 20 20 21 22 23 24 25 26 27 28 4 1 2 3 4 9 10 9 3 3 1 0 5 8 7 5 12 8 4 7 5 4 8 5 21 26 13 7
27 26 25 24 24 24 23 23 24 24 24 25 25 25 25 21 8 3 4 3 2 4 8 11 4 1 3 1 3 2 10 9 6 2 5 6 7 10 15 9 12 24 5 9 6
30 30 30 29 29 28 28 28 27 27 27 26 26 25 24 15 17 20 19 17 16 14 15 13 9 3 3 3 2 5 5 9 18 21 21 20 23 16 37 28 7 11 9 11 12
34 33 34 34 33 33 32 31 30 28 26 26 26 25 24 16 18 20 21 19 17 18 20 18 8 10 5 5 7 2 9 20 22 32 21 12 7 7 15 11 15 7 9 9 11
38 37 36 36 35 34 33 31 30 28 28 28 27 26 29 41 26 19 21 21 16 17 18 20 16 12 10 2 4 4 9 13 14 9 8 11 2 12 13 4 14 11 9 10 14
38 38 38 38 37 36 36 35 33 31 29 28 27 25 22 29 30 31 35 27 22 20 17 16 15 14 7 4 6 5 7 7 4 5 1 11 13 7 20 10 13 12 13 13 15
38 36 36 37 37 37 36 34 33 31 29 27 26 20 20 26 25 31 26 23 21 18 17 14 15 7 7 10 8 9 6 9 15 5 5 7 12 10 25 16 17 15 15 16 19
40 38 35 33 35 37 33 30 30 31 29 26 29 12 32 17 16 20 24 22 15 20 14 14 9 6 5 7 11 12 9 8 10 1 5 2 14 18 44 13 22 22 23 26 27
42 38 36 33 31 31 27 23 21 14 27 24 11 13 7 24 20 19 25 27 18 16 11 7 7 17 25 19 4 6 9 12 8 7 2 12 11 10 23 28 29 28 31 37 41
49 43 35 32 32 33 29 17 17 9 18 32 50 45 30 19 15 27 31 25 17 12 14 6 14 18 8 9 8 4 5 11 8 9 10 11 7 7 18 10 17 30 35 42 46
57 51 42 37 38 37 38 34 25 18 13 19 45 49 60 48 27 35 43 22 10 13 16 16 11 9 14 8 10 10 12 9 13 5 6 2 8 8 8 21 27 27 33 37 42
67 60 51 49 46 46 48 29 29 9 8 12 14 14 26 28 15 39 49 23 9 19 13 13 10 12 9 12 18 8 17 13 8 6 8 2 9 6 9 9 9 24 31 35 38
57 70 62 70 51 42 37 30 21 15 10 1 8 11 23 22 20 10 41 16 14 14 13 13 14 9 12 19 13 13 10 12 9 8 1 5 0 5 12 10 12 24 31 35 38
42 48 63 63 67 55 39 27 40 8 19 7 9 10 11 6 6 12 10 9 9 9 3 9 3 12 14 4 13 14 12 12 8 5 5 18 15 8 12 13 19 30 38 39 38
51 45 56 53 72 64 45 47 7 12 2 11 10 12 7 10 6 8 12 11 13 10 12 3 10 5 7 9 4 8 12 1 4 2 11 2 8 11 5 4 32 43 51 46 40
58 52 57 54 55 58 57 11 13 13 15 6 8 7 13 14 11 12 13 13 12 5 7 13 8 20 14 14 14 13 13 10 13 7 5 5 11 8 5 4 44 58 59 48 42
65 64 57 61 57 69 51 18 21 14 12 18 7 8 8 8 11 10 16 12 19 22 15 12 11 2 6 8 12 12 9 8 11 4 5 9 6 3 8 11 36 50 59 54 47
75 62 66 60 59 68 22 33 14 12 13 7 27 16 21 17 16 17 20 13 13 23 10 11 3 2 5 8 6 7 11 7 3 2 8 7 9 9 15 21 22 33 51 58 46
67 19 33 53 49 37 19 14 20 20 20 17 23 20 14 16 18 13 14 5 12 13 16 10 6 2 7 12 17 6 6 7 6 8 9 3 10 6 23 35 41 46 64 64 55
43 9 22 43 25 9 18 12 14 21 26 8 4 3 16 20 21 17 27 8 6 18 19 14 7 8 12 4 1 4 15 14 9 10 6 5 16 6 11 36 48 55 69 67 55
14 14 30 63 17 22 6 11 18 12 13 13 19 15 8 14 9 12 11 3 7 10 15 12 3 1 9 2 3 9 9 7 9 7 20 9 11 8 13 26 44 50 68 64 56
6 1 12 22 5 6 14 11 15 20 14 14 9 10 9 12 13 7 12 4 6 10 13 4 6 14 19 8 7 8 11 9 10 9 10 31 9 7 11 19 36 58 64 60 57
11 6 6 3 13 13 2 3 8 14 5 21 11 20 12 10 12 14 5 5 7 10 9 6 11 4 5 4 2 8 10 17 21 31 19 28 20 17 23 29 50 60 52 51 51
7 7 9 4 6 14 23 16 19 8 11 9 8 7 24 19 13 13 11 5 5 3 8 3 4 7 7 7 8 9 17 15 22 7 10 4 20 6 18 24 42 48 45 47 51
21 16 7 10 7 7 8 10 15 9 3 5 6 11 14 11 8 11 24 27 11 14 15 15 12 9 7 2 3 14 20 29 13 12 16 22 20 11 8 17 44 45 41 46 52
Wind_Direction_500mb
276 277 282 284 285 292 298 302 308 311 315 315 315 314 315 315 314 313 314 289 266 259 252 250 223 220 266 76 52 94 65 181 231 164 243 358 21 354 330 261 341 328 320 305 315
265 268 269 271 278 281 285 291 295 300 305 308 310 312 315 316 316 312 301 287 261 230 205 178 178 147 96 80 55 82 109 217 209 208 228 322 316 325 333 327 297 340 337 305 301
266 266 266 268 269 272 278 282 287 292 297 301 304 306 310 318 321 317 238 103 97 144 157 155 147 96 87 84 142 138 190 212 266 235 284 294 293 257 277 297 296 335 324 316 275
265 266 266 268 270 271 274 276 281 286 290 293 297 300 305 313 309 284 217 206 214 216 196 190 215 38 70 282 194 308 253 230 285 239 310 286 293 280 235 258 312 314 40 82 74
263 266 268 268 269 271 274 277 281 285 288 291 294 297 302 287 262 264 256 259 268 251 228 222 230 200 181 204 180 183 271 264 272 275 276 269 257 262 281 297 209 110 95 51 30
263 264 266 269 270 272 273 275 277 280 284 287 289 291 289 265 265 260 256 255 249 239 229 224 218 218 188 207 178 240 280 287 289 279 273 234 272 182 93 108 125 128 64 38 17
265 264 265 266 269 270 270 269 270 273 278 282 284 285 274 266 266 262 257 252 240 232 231 225 224 195 172 220 248 315 326 327 263 272 224 176 221 237 138 110 98 94 78 57 49
264 265 266 265 265 266 267 268 269 272 274 277 279 280 262 266 258 254 247 242 240 233 228 226 215 217 203 167 26 40 54 353 280 153 231 164 261 91 84 18 93 92 84 73 59
266 265 264 265 263 263 264 269 269 270 272 273 272 258 265 256 251 244 233 230 227 217 206 192 178 169 148 102 13 5 228 205 313 208 137 173 250 150 10 30 114 101 96 89 85
266 267 267 267 266 264 265 268 272 274 271 268 251 262 238 235 231 224 215 210 191 183 168 177 162 93 55 117 220 199 207 229 232 305 76 234 275 309 4 58 119 110 106 100 91
261 260 263 266 265 265 264 276 274 265 237 221 238 220 242 218 212 202 194 183 163 168 161 170 132 207 202 202 194 156 185 203 238 248 144 248 254 360 22 94 111 115 109 101 94
257 254 253 256 259 260 256 236 231 269 292 255 251 248 247 216 198 200 188 178 177 181 123 86 225 226 142 177 197 212 201 239 280 256 168 254 249 51 34 54 124 127 118 112 108
251 250 248 249 251 249 251 246 249 285 267 257 242 240 235 225 220 199 189 191 175 159 192 183 201 152 176 171 189 215 201 210 226 336 253 318 258 188 64 93 119 124 125 120 113
247 242 243 242 242 248 247 252 239 254 280 250 221 226 200 197 233 217 203 191 195 196 170 236 230 175 168 206 185 240 204 180 186 122 233 137 274 193 153 128 95 136 136 128 121
270 240 240 231 235 227 244 240 205 168 260 192 148 162 163 179 144 173 187 191 168 170 144 231 169 170 198 227 156 229 137 172 163 170 65 239 10 242 135 185 180 164 150 140 130
255 264 249 241 228 232 228 196 165 162 234 221 141 154 129 183 133 117 151 159 151 128 238 235 194 171 199 99 177 138 78 50 54 95 262 221 178 221 194 192 168 175 164 152 142
248 243 249 246 234 227 219 172 202 189 223 194 191 172 148 157 161 156 161 175 163 140 210 208 212 190 158 99 77 100 106 26 338 323 231 81 159 257 182 182 175 169 171 163 152
244 242 243 255 261 235 183 180 197 206 218 98 114 95 177 158 201 178 146 188 244 150 123 177 243 163 182 187 175 188 167 163 207 207 267 355 234 260 339 340 171 166 168 166 161
243 237 234 242 248 234 187 209 196 183 186 143 98 144 227 221 163 146 194 203 201 185 186 168 271 90 145 144 146 186 193 163 110 72 55 212 280 210 99 99 140 159 171 175 174
242 229 230 241 244 219 212 217 216 208 132 173 197 174 183 193 166 183 180 197 203 182 191 214 180 105 144 105 47 167 164 95 14 204 250 274 268 228 196 176 168 175 186 183 180
241 228 235 241 241 207 223 218 212 206 179 184 209 187 189 178 185 199 207 241 191 183 154 152 147 198 131 202 173 146 178 67 135 152 182 261 254 219 195 185 180 184 190 189 187
230 214 215 203 198 212 221 195 183 193 206 184 183 142 188 176 183 207 203 227 157 146 164 194 142 167 195 169 289 191 186 162 167 217 232 163 255 343 211 182 180 188 194 194 195
227 223 203 190 215 216 165 197 200 158 190 184 202 206 161 171 205 191 180 68 129 164 156 177 163 69 352 94 348 215 201 140 103 73 218 189 253 20 114 157 185 189 198 197 199
223 97 206 217 207 353 201 193 191 199 179 178 175 138 155 170 206 211 184 157 145 87 67 143 157 184 216 176 131 171 199 175 149 188 212 234 272 214 172 177 183 198 199 200 205
171 238 229 211 208 191 299 358 195 170 215 188 197 189 176 178 177 194 133 126 48 101 62 103 215 129 102 72 201 212 199 188 198 222 206 250 210 202 195 195 195 192 193 202 209
204 194 204 199 317 215 180 190 201 249 168 204 163 251 206 178 186 185 143 144 166 64 119 148 185 141 202 22 334 282 248 212 227 225 255 284 254 214 191 175 172 188 194 203 211
215 219 193 180 175 181 202 183 193 136 349 32 218 153 225 215 167 171 177 170 188 175 172 159 139 151 208 49 205 271 236 209 194 188 177 217 238 161 175 183 192 203 212 224 216
Wind_Speed_850mb
12 11 11 11 11 12 13 14 15 15 16 17 19 21 22 24 25 27 28 13 11 12 11 10 9 4 1 3 5 5 9 2 6 10 4 6 11 2 14 5 5 5 12 21 23
17 17 16 16 16 16 16 16 17 18 19 20 22 24 26 28 30 30 11 7 5 4 5 8 7 4 4 3 3 8 7 13 8 7 3 9 4 14 8 13 7 18 14 10 15
22 21 21 20 19 19 20 20 20 21 22 23 24 25 26 27 28 4 1 2 3 4 9 10 9 3 3 1 0 5 8 7 5 12 8 4 7 5 4 8 5 21 26 13 7
27 26 25 24 24 24 23 23 24 24 24 25 25 25 25 21 8 3 4 3 2 4 8 11 4 1 3 1 3 2 10 9 6 2 5 6 7 10 15 9 12 24 5 9 6
30 30 30 29 29 28 28 28 27 27 27 26 26 25 24 15 17 20 19 17 16 14 15 13 9 3 3 3 2 5 5 9 18 21 21 20 23 16 37 28 7 11 9 11 12
34 33 34 34 33 33 32 31 30 28 26 26 26 25 24 16 18 20 21 19 17 18 20 18 8 10 5 5 7 2 9 20 22 32 21 12 7 7 15 11 15 7 9 9 11
38 37 36 36 35 34 33 31 30 28 28 28 27 26 29 41 26 19 21 21 16 17 18 20 16 12 10 2 4 4 9 13 14 9 8 11 2 12 13 4 14 11 9 10 14
38 38 38 38 37 36 36 35 33 31 29 28 27 25 22 29 30 31 35 27 22 20 17 16 15 14 7 4 6 5 7 7 4 5 1 11 13 7 20 10 13 12 13 13 15
38 36 36 37 37 37 36 34 33 31 29 27 26 20 20 26 25 31 26 23 21 18 17 14 15 7 7 10 8 9 6 9 15 5 5 7 12 10 25 16 17 15 15 16 19
40 38 35 33 35 37 33 30 30 31 29 26 29 12 32 17 16 20 24 22 15 20 14 14 9 6 5 7 11 12 9 8 10 1 5 2 14 18 44 13 22 22 23 26 27
42 38 36 33 31 31 27 23 21 14 27 24 11 13 7 24 20 19 25 27 18 16 11 7 7 17 25 19 4 6 9 12 8 7 2 12 11 10 23 28 29 28 31 37 41
49 43 35 32 32 33 29 17 17 9 18 32 50 45 30 19 15 27 31 25 17 12 14 6 14 18 8 9 8 4 5 11 8 9 10 11 7 7 18 10 17 30 35 42 46
57 51 42 37 38 37 38 34 25 18 13 19 45 49 60 48 27 35 43 22 10 13 16 16 11 9 14 8 10 10 12 9 13 5 6 2 8 8 8 21 27 27 33 37 42
67 60 51 49 46 46 48 29 29 9 8 12 14 14 26 28 15 39 49 23 9 19 13 13 10 12 9 12 18 8 17 13 8 6 8 2 9 6 9 9 9 24 31 35 38
57 70 62 70 51 42 37 30 21 15 10 1 8 11 23 22 20 10 41 16 14 14 13 13 14 9 12 19 13 13 10 12 9 8 1 5 0 5 12 10 12 24 31 35 38
42 48 63 63 67 55 39 27 40 8 19 7 9 10 11 6 6 12 10 9 9 9 3 9 3 12 14 4 13 14 12 12 8 5 5 18 15 8 12 13 19 30 38 39 38
51 45 56 53 72 64 45 47 7 12 2 11 10 12 7 10 6 8 12 11 13 10 12 3 10 5 7 9 4 8 12 1 4 2 11 2 8 11 5 4 32 43 51 46 40
58 52 57 54 55 58 57 11 13 13 15 6 8 7 13 14 11 12 13 13 12 5 7 13 8 20 14 14 14 13 13 10 13 7 5 5 11 8 5 4 44 58 59 48 42
65 64 57 61 57 69 51 18 21 14 12 18 7 8 8 8 11 10 16 12 19 22 15 12 11 2 6 8 12 12 9 8 11 4 5 9 6 3 8 11 36 50 59 54 47
75 62 66 60 59 68 22 33 14 12 13 7 27 16 21 17 16 17 20 13 13 23 10 11 3 2 5 8 6 7 11 7 3 2 8 7 9 9 15 21 22 33 51 58 46
67 19 33 53 49 37 19 14 20 20 20 17 23 20 14 16 18 13 14 5 12 13 16 10 6 2 7 12 17 6 6 7 6 8 9 3 10 6 23 35 41 46 64 64 55
43 9 22 43 25 9 18 12 14 21 26 8 4 3 16 20 21 17 27 8 6 18 19 14 7 8 12 4 1 4 15 14 9 10 6 5 16 6 11 36 48 55 69 67 55
14 14 30 63 17 22 6 11 18 12 13 13 19 15 8 14 9 12 11 3 7 10 15 12 3 1 9 2 3 9 9 7 9 7 20 9 11 8 13 26 44 50 68 64 56
6 1 12 22 5 6 14 11 15 20 14 14 9 10 9 12 13 7 12 4 6 10 13 4 6 14 19 8 7 8 11 9 10 9 10 31 9 7 11 19 36 58 64 60 57
11 6 6 3 13 13 2 3 8 14 5 21 11 20 12 10 12 14 5 5 7 10 9 6 11 4 5 4 2 8 10 17 21 31 19 28 20 17 23 29 50 60 52 51 51
7 7 9 4 6 14 23 16 19 8 11 9 8 7 24 19 13 13 11 5 5 3 8 3 4 7 7 7 8 9 17 15 22 7 10 4 20 6 18 24 42 48 45 47 51
21 16 7 10 7 7 8 10 15 9 3 5 6 11 14 11 8 11 24 27 11 14 15 15 12 9 7 2 3 14 20 29 13 12 16 22 20 11 8 17 44 45 41 46 52
Wind_Direction_850mb
276 277 282 284 285 292 298 302 308 311 315 315 315 314 315 315 314 313 314 289 266 259 252 250 223 220 266 76 52 94 65 181 231 164 243 358 21 354 330 261 341 328 320 305 315
265 268 269 271 278 281 285 291 295 300 305 308 310 312 315 316 316 312 301 287 261 230 205 178 178 147 96 80 55 82 109 217 209 208 228 322 316 325 333 327 297 340 337 305 301
266 266 266 268 269 272 278 282 287 292 297 301 304 306 310 318 321 317 238 103 97 144 157 155 147 96 87 84 142 138 190 212 266 235 284 294 293 257 277 297 296 335 324 316 275
265 266 266 268 270 271 274 276 281 286 290 293 297 300 305 313 309 284 217 206 214 216 196 190 215 38 70 282 194 308 253 230 285 239 310 286 293 280 235 258 312 314 40 82 74
263 266 268 268 269 271 274 277 281 285 288 291 294 297 302 287 262 264 256 259 268 251 228 222 230 200 181 204 180 183 271 264 272 275 276 269 257 262 281 297 209 110 95 51 30
263 264 266 269 270 272 273 275 277 280 284 287 289 291 289 265 265 260 256 255 249 239 229 224 218 218 188 207 178 240 280 287 289 279 273 234 272 182 93 108 125 128 64 38 17
265 264 265 266 269 270 270 269 270 273 278 282 284 285 274 266 266 262 257 252 240 232 231 225 224 195 172 220 248 315 326 327 263 272 224 176 221 237 138 110 98 94 78 57 49
264 265 266 265 265 266 267 268 269 272 274 277 279 280 262 266 258 254 247 242 240 233 228 226 215 217 203 167 26 40 54 353 280 153 231 164 261 91 84 18 93 92 84 73 59
266 265 264 265 263 263 264 269 269 270 272 273 272 258 265 256 251 244 233 230 227 217 206 192 178 169 148 102 13 5 228 205 313 208 137 173 250 150 10 30 114 101 96 89 85
266 267 267 267 266 264 265 268 272 274 271 268 251 262 238 235 231 224 215 210 191 183 168 177 162 93 55 117 220 199 207 229 232 305 76 234 275 309 4 58 119 110 106 100 91
261 260 263 266 265 265 264 276 274 265 237 221 238 220 242 218 212 202 194 183 163 168 161 170 132 207 202 202 194 156 185 203 238 248 144 248 254 360 22 94 111 115 109 101 94
257 254 253 256 259 260 256 236 231 269 292 255 251 248 247 216 198 200 188 178 177 181 123 86 225 226 142 177 197 212 201 239 280 256 168 254 249 51 34 54 124 127 118 112 108
251 250 248 249 251 249 251 246 249 285 267 257 242 240 235 225 220 199 189 191 175 159 192 183 201 152 176 171 189 215 201 210 226 336 253 318 258 188 64 93 119 124 125 120 113
247 242 243 242 242 248 247 252 239 254 280 250 221 226 200 197 233 217 203 191 195 196 170 236 230 175 168 206 185 240 204 180 186 122 233 137 274 193 153 128 95 136 136 128 121
270 240 240 231 235 227 244 240 205 168 260 192 148 162 163 179 144 173 187 191 168 170 144 231 169 170 198 227 156 229 137 172 163 170 65 239 10 242 135 185 180 164 150 140 130
255 264 249 241 228 232 228 196 165 162 234 221 141 154 129 183 133 117 151 159 151 128 238 235 194 171 199 99 177 138 78 50 54 95 262 221 178 221 194 192 168 175 164 152 142
248 243 249 246 234 227 219 172 202 189 223 194 191 172 148 157 161 156 161 175 163 140 210 208 212 190 158 99 77 100 106 26 338 323 231 81 159 257 182 182 175 169 171 163 152
244 242 243 255 261 235 183 180 197 206 218 98 114 95 177 158 201 178 146 188 244 150 123 177 243 163 182 187 175 188 167 163 207 207 267 355 234 260 339 340 171 166 168 166 161
243 237 234 242 248 234 187 209 196 183 186 143 98 144 227 221 163 146 194 203 201 185 186 168 271 90 145 144 146 186 193 163 110 72 55 212 280 210 99 99 140 159 171 175 174
242 229 230 241 244 219 212 217 216 208 132 173 197 174 183 193 166 183 180 197 203 182 191 214 180 105 144 105 47 167 164 95 14 204 250 274 268 228 196 176 168 175 186 183 180
241 228 235 241 241 207 223 218 212 206 179 184 209 187 189 178 185 199 207 241 191 183 154 152 147 198 131 202 173 146 178 67 135 152 182 261 254 219 195 185 180 184 190 189 187
230 214 215 203 198 212 221 195 183 193 206 184 183 142 188 176 183 207 203 227 157 146 164 194 142 167 195 169 289 191 186 162 167 217 232 163 255 343 211 182 180 188 194 194 195
227 223 203 190 215 216 165 197 200 158 190 184 202 206 161 171 205 191 180 68 129 164 156 177 163 69 352 94 348 215 201 140 103 73 218 189 253 20 114 157 185 189 198 197 199
223 97 206 217 207 353 201 193 191 199 179 178 175 138 155 170 206 211 184 157 145 87 67 143 157 184 216 176 131 171 199 175 149 188 212 234 272 214 172 177 183 198 199 200 205
171 238 229 211 208 191 299 358 195 170 215 188 197 189 176 178 177 194 133 126 48 101 62 103 215 129 102 72 201 212 199 188 198 222 206 250 210 202 195 195 195 192 193 202 209
204 194 204 199 317 215 180 190 201 249 168 204 163 251 206 178 186 185 143 144 166 64 119 148 185 141 202 22 334 282 248 212 227 225 255 284 254 214 191 175 172 188 194 203 211
215 219 193 180 175 181 202 183 193 136 349 32 218 153 225 215 167 171 177 170 188 175 172 159 139 151 208 49 205 271 236 209 194 188 177 217 238 161 175 183 192 203 212 224 216